{"data":{"norad_id":40037,"epoch":"2026-09-20T03:09:34.400160Z","epoch_age_seconds":46206,"freshness":"FRESH","line1":"1 40037U 14033AD  26263.13164815  .00000865  00000+0  83077-4 0  9990","line2":"2 40037  98.0058 215.6641 0011868 351.3602   8.7412 14.95744513664972","mean_motion":14.95744513,"eccentricity":0.0011868,"inclination_deg":98.0058,"raan_deg":215.6641,"arg_perigee_deg":351.3602,"mean_anomaly_deg":8.7412,"bstar":8.3077e-5,"rev_number":66497,"period_min":96.273126024163,"perigee_km":571.80481959525,"apogee_km":588.32080266695,"semimajor_km":6958.1998111311,"source":"CELESTRAK","updated_at":"2026-09-20T09:00:48.025525Z"}}